Miscellaneous Local Product
Issued by NWS Hastings, NE

Home | Current Version | Previous Version | Text Only | Print | Product List | Glossary On
Versions: 1 2 3 4 5 6 7 8 9 10 11 12 13 14 15 16 17 18 19 20 21 22 23 24 25 26 27 28 29 30 31 32 33 34 35 36 37 38 39 40 41 42 43 44 45 46 47 48 49 50
000
AXUS43 KGID 020010
MISGRI

GID CWA HOURLY WEATHER ROUNDUP
NATIONAL WEATHER SERVICE HASTINGS NE
700 PM CDT WED OCT 01 2014

NOTE: "FAIR" INDICATES FEW OR NO CLOUDS BELOW 12,000 FEET WITH NO
SIGNIFICANT WEATHER AND/OR OBSTRUCTIONS TO VISIBILITY.

...SOUTH CENTRAL NEBRASKA...

CITY           SKY/WX    TMP DP  RH WIND       PRES   REMARKS
GRAND ISLAND   CLEAR     71  56  58 N7        29.76R
HASTINGS       PTCLDY    73  55  53 E8        29.75R
KEARNEY        PTCLDY    72  55  56 N8        29.76S
ORD            PTCLDY    68  51  54 NE6       29.77R
YORK           MOCLDY    72  59  64 NE8       29.74S
AURORA         PTCLDY    73  55  51 NE6       29.74F
LEXINGTON      PTCLDY    70  56  60 NE5       29.77R
HOLDREGE       PTCLDY    70  55  57 CALM      29.76R
HEBRON         PTCLDY    73  59  62 CALM      29.73S

...NEBRASKA PANHANDLE...

CITY           SKY/WX    TMP DP  RH WIND       PRES   REMARKS
CHADRON        CLOUDY    53  46  77 N7        29.94R
ALLIANCE       LGT RAIN  52  48  86 NW15G25   29.90R FOG
SCOTTSBLUFF    CLOUDY    54  43  66 NW25G32   29.94R
SIDNEY         TSTM      51  47  86 W18G35    29.92R FOG

...WESTERN AND NORTH CENTRAL NEBRASKA...

CITY           SKY/WX    TMP DP  RH WIND       PRES   REMARKS
VALENTINE      PTCLDY    63  46  54 N10       29.85R
AINSWORTH      CLEAR     62  47  58 N8        29.83R
ONEILL         MOCLDY    67  53  62 N6        29.81R
BROKEN BOW     CLOUDY    71  49  45 NE9       29.78R
IMPERIAL       PTCLDY    71  42  35 E6        29.79R
NORTH PLATTE   PTCLDY    68  49  50 E5        29.77S
MCCOOK         CLEAR     75  43  31 CALM      29.76R

...EASTERN NEBRASKA...

CITY           SKY/WX    TMP DP  RH WIND       PRES   REMARKS
NORFOLK        PTCLDY    69  54  58 NW6       29.76R
SO SIOUX CITY  PTCLDY    74  58  57 NW5       29.74R
TEKAMAH        MOCLDY    74  61  63 SE5       29.74R
COLUMBUS       MOCLDY    77  54  44 CALM      29.76R
ALBION         PTCLDY    69  52  54 N3        29.78R
OMAHA EPPLEY   MOCLDY    73  62  68 NE3       29.74R
OFFUTT AFB     MOCLDY    71  68  89 N2        29.74R
MILLARD        MOCLDY    72  65  78 CALM      29.74S
LINCOLN        PTCLDY    73  61  65 E5        29.75R
NEBRASKA CITY  PTCLDY    72  60  65 CALM      29.74R
BEATRICE       PTCLDY    72  59  64 NE6       29.73R
FALLS CITY     CLEAR     75  65  70 E6        29.71S

...NORTHERN KANSAS...

CITY           SKY/WX    TMP DP  RH WIND       PRES   REMARKS
GOODLAND       PTCLDY    71  43  36 SE3       29.80R
HILL CITY      CLEAR     76  48  37 E5        29.74R
NORTON         CLEAR     73  45  35 SE5       29.74
PHILLIPSBURG   CLEAR     79  57  47 E7        29.73R
SMITH CENTER   CLEAR     72  55  56 E6        29.74R
BELOIT         CLEAR     75  63  64 NE3       29.70S
HAYS           CLEAR     73  61  64 E3        29.73S
RUSSELL        CLEAR     73  63  70 E6        29.71S
CONCORDIA      MOCLDY    75  63  66 N5        29.72R
SALINA         PTCLDY    79  66  64 N8        29.68S
TOPEKA         MOCLDY    79  69  71 E7        29.69S



USA.gov is the U.S. government's official web portal to all federal, state and local government web resources and services.